Wetbulb
75.80 75.11 75.28 76.02 76.01 75.56 75.51 76.52 77.61 77.44 77.61 77.84 77.82 77.81 77.71 76.60 76.47 75.86 74.76 73.74 72.39 69.45
75.93 75.90 75.69 76.97 77.08 76.62 77.75 77.25 77.75 77.63 77.75 77.95 77.88 77.60 77.21 75.80 75.52 74.73 73.89 73.00 71.08 70.79
75.52 76.47 76.73 76.90 76.85 77.53 77.69 78.10 78.13 78.03 77.59 76.99 76.68 75.76 74.33 73.00 73.70 73.19 72.35 71.38 70.99 70.89
75.60 75.90 76.40 76.18 76.91 77.18 77.41 77.83 78.04 77.86 76.31 75.13 74.78 73.69 72.63 72.70 73.03 72.72 72.17 69.69 68.95 70.26
76.15 76.33 76.34 75.41 75.33 75.93 75.56 74.68 75.32 74.81 74.26 73.08 72.97 73.27 72.43 71.71 71.58 71.19 70.69 71.30 71.86 70.93
74.76 74.27 73.31 72.28 72.61 72.72 73.31 73.38 70.72 69.74 69.50 69.38 69.81 70.35 70.51 70.07 70.84 71.54 71.15 71.50 71.60 71.17
71.37 70.85 70.38 69.90 69.12 68.06 68.54 68.68 69.57 69.32 69.73 70.47 70.82 70.87 70.53 71.29 71.51 71.93 71.80 71.95 72.00 72.10
68.57 67.07 66.82 66.65 66.15 66.31 66.66 67.04 67.95 67.42 66.55 66.62 66.84 67.08 68.36 70.11 71.07 69.93 69.20 68.69 68.97 69.78
65.22 65.48 64.99 65.34 65.40 66.87 65.75 64.71 64.55 65.48 64.75 63.86 63.14 63.39 64.23 64.44 63.48 63.30 62.60 62.73 64.27 66.36
63.91 63.80 63.45 63.80 65.29 65.30 62.79 62.41 61.93 61.62 61.83 60.69 62.49 60.84 61.74 62.48 62.22 61.31 60.80 61.04 61.10 62.14
64.26 64.22 64.44 65.02 65.31 64.75 62.68 62.25 60.78 60.97 61.02 61.35 61.44 59.57 59.85 60.93 62.52 62.03 62.40 61.95 61.99 61.81
64.90 64.32 64.59 65.01 64.94 64.28 62.89 62.85 61.69 61.33 61.02 60.97 60.79 58.40 58.82 61.81 63.02 61.37 60.02 60.63 60.06 59.70
63.25 64.40 64.25 64.70 63.98 63.40 62.82 62.05 62.04 62.05 62.54 60.47 62.01 57.64 57.67 60.74 61.41 60.58 60.13 61.19 61.50 58.37
64.58 64.35 64.17 63.94 63.74 62.81 62.39 62.29 62.38 62.35 61.92 61.63 60.28 60.26 56.48 57.40 61.93 61.51 61.10 61.26 61.46 62.22
MSLP
1015.68 1015.82 1015.81 1015.91 1016.03 1016.14 1016.08 1015.89 1015.91 1015.77 1015.64 1015.54 1015.45 1015.35 1015.43 1015.67 1015.76 1015.92 1016.02 1016.06 1016.04 1015.76
1015.18 1015.39 1015.39 1015.70 1015.97 1015.75 1015.77 1015.65 1015.49 1015.35 1015.34 1015.24 1015.10 1015.19 1015.47 1015.50 1015.68 1015.87 1016.21 1015.99 1015.91 1015.90
1014.75 1014.95 1015.21 1015.43 1015.55 1015.45 1015.28 1015.34 1015.34 1015.33 1015.23 1015.16 1015.16 1015.39 1015.59 1015.62 1015.79 1015.95 1016.17 1016.22 1016.22 1015.87
1014.37 1014.71 1015.05 1015.22 1015.43 1015.47 1015.35 1015.50 1015.41 1015.33 1015.50 1015.58 1015.67 1015.79 1015.84 1015.79 1015.72 1015.84 1016.04 1016.18 1016.10 1015.78
1014.37 1014.77 1014.93 1015.55 1015.77 1015.84 1015.76 1015.67 1015.60 1015.60 1015.65 1015.78 1015.89 1015.86 1015.85 1015.74 1015.61 1015.65 1015.49 1015.43 1015.40 1015.29
1014.79 1015.40 1015.86 1016.15 1016.18 1016.13 1015.99 1015.93 1016.02 1016.02 1016.06 1016.10 1016.06 1016.05 1015.99 1015.92 1015.72 1015.44 1015.21 1015.11 1015.03 1014.92
1015.72 1016.14 1016.42 1016.61 1016.78 1016.79 1016.78 1016.59 1016.50 1016.50 1016.43 1016.34 1016.24 1016.16 1016.05 1015.79 1015.63 1015.40 1015.23 1015.10 1014.94 1014.77
1016.72 1017.01 1017.16 1017.22 1017.31 1017.38 1017.27 1017.23 1017.18 1017.11 1017.08 1017.10 1016.99 1016.80 1016.32 1015.88 1015.60 1015.64 1015.55 1015.49 1015.28 1015.07
1017.32 1017.50 1017.67 1017.78 1017.81 1017.83 1017.92 1017.92 1017.82 1017.78 1017.80 1017.84 1017.72 1017.45 1016.87 1016.65 1016.66 1016.63 1016.55 1016.37 1016.05 1015.56
1017.89 1018.06 1018.22 1018.29 1018.21 1018.26 1018.48 1018.54 1018.52 1018.59 1018.61 1018.56 1018.36 1018.24 1017.86 1017.64 1017.55 1017.45 1017.34 1017.10 1016.76 1016.28
1018.33 1018.39 1018.48 1018.41 1018.45 1018.73 1019.10 1019.29 1019.46 1019.51 1019.47 1019.35 1019.41 1019.16 1018.78 1018.49 1018.21 1018.07 1017.92 1017.71 1017.44 1017.14
1018.64 1018.74 1018.87 1018.89 1019.18 1019.47 1019.53 1019.59 1019.81 1019.95 1019.98 1019.89 1019.88 1019.79 1019.47 1018.84 1018.39 1018.29 1018.42 1018.27 1018.20 1017.93
1019.32 1019.33 1019.45 1019.65 1019.82 1020.06 1020.03 1020.08 1020.14 1020.25 1020.34 1020.48 1020.28 1020.21 1019.84 1019.23 1018.83 1018.77 1018.52 1018.67 1018.71 1018.76
1019.70 1019.91 1020.16 1020.31 1020.38 1020.39 1020.41 1020.50 1020.59 1020.73 1020.96 1021.04 1021.22 1021.19 1020.72 1020.34 1019.73 1019.27 1019.06 1019.04 1019.01 1019.05
Wind_Speed
11 8 7 7 6 5 6 5 4 5 6 7 8 8 7 6 7 7 7 7 6 6
9 10 8 8 6 6 6 6 7 7 8 8 8 7 6 6 7 6 5 7 6 6
8 9 8 8 9 10 10 9 9 9 9 8 7 5 4 4 4 5 4 4 6 6
7 7 7 8 7 9 10 9 9 9 8 6 5 4 5 4 4 5 5 4 5 7
3 3 3 4 5 5 5 6 6 4 4 4 5 6 7 7 5 7 7 6 5 6
8 9 8 8 8 8 9 8 8 7 5 4 4 4 3 3 5 6 5 5 6 8
10 10 9 9 10 10 9 9 9 7 6 6 7 6 6 5 5 5 6 8 8 9
10 10 10 10 10 8 10 9 9 9 10 9 9 8 8 7 8 8 8 8 8 7
10 10 10 10 10 10 11 10 11 11 11 11 9 15 18 13 9 9 9 9 10 10
10 10 10 10 12 13 12 12 13 12 12 14 13 18 18 17 12 11 11 11 10 10
10 11 10 11 12 12 11 12 12 12 12 12 13 16 14 15 12 11 12 13 13 12
9 10 9 10 11 10 10 11 11 11 12 13 13 17 15 9 9 11 12 11 14 12
8 8 9 9 10 9 9 10 9 11 11 12 12 15 15 11 8 10 8 10 11 17
9 9 9 8 7 8 8 8 8 9 8 9 9 10 12 12 8 7 7 7 7 9
Wind_Direction
228 236 242 252 268 275 290 304 302 263 253 251 252 253 249 250 248 254 252 254 256 261
228 234 249 255 260 267 269 273 263 254 253 259 263 256 257 262 263 259 256 266 253 262
239 243 259 269 268 272 276 273 273 265 262 253 249 262 275 289 283 262 263 291 298 280
230 236 245 257 268 271 285 291 283 278 287 292 283 311 305 305 306 285 284 262 253 274
239 257 281 1 4 354 345 349 340 309 277 289 300 303 290 289 285 274 285 282 292 301
75 71 61 54 41 34 32 40 48 45 40 27 32 29 350 293 283 291 280 286 305 315
71 69 65 58 53 51 45 48 50 54 45 33 18 8 347 341 338 326 312 320 317 313
73 71 66 61 60 59 57 54 55 54 49 38 27 7 342 335 349 356 4 11 356 337
80 74 69 65 65 67 63 56 56 55 52 44 37 24 38 48 44 39 31 12 0 351
82 80 77 78 77 75 66 64 59 55 55 49 43 40 50 56 57 54 44 33 23 29
93 85 80 81 69 65 58 55 53 53 54 56 46 44 52 56 64 62 55 48 43 37
95 94 90 79 71 67 66 64 61 54 50 52 45 41 46 51 60 58 50 48 43 40
98 94 88 77 73 78 78 77 77 70 62 55 51 28 23 22 51 54 52 52 44 40
102 100 97 93 85 92 90 90 82 77 65 61 37 43 21 13 47 44 49 40 31 28